x

9076027 - West Neebish, Mi (wnem4) Weather Station

7:54pm - Sat 28th Mar 2015 All times are CDT. -5 hours from GMT.

  • Wind
    5mph, 8mph gusts
  • Air Temp 26°f
  • Sea Pressure 1021.3mb
  • 9076027 - West Neebish, Mi
  • 9076027 - West Neebish, Mi

More Historic Weather Station data

Upgrade to MSW Pro to gain access to the past 30 days of data for over 8000 Wavebouys and Weather Stations around the globe.

Join Pro

Comparision Forecast

View Surf forecast
   
Sat 03/28 7:54pm 5 8 mph 1021.3mb 26f
7:48pm 6 9 mph 1021.3mb 26f
7:42pm 5 8 mph 1021.2mb 27f
7:36pm 5 8 mph 1021.1mb 27f
7:30pm 6 9 mph 1021.1mb 27f
7:24pm 6 9 mph 1021.1mb 28f
7:18pm 6 8 mph 1021mb 28f
7:12pm 6 9 mph 1020.9mb 28f
7:06pm 6 8 mph 1021mb 28f
7:00pm 6 11 mph 1021mb 29f
6:54pm 8 10 mph 1021.1mb 29f
6:48pm 5 10 mph - -
6:42pm 7 8 mph 1021mb 30f
6:36pm 3 8 mph 1021mb 30f
6:30pm 7 14 mph 1021mb 31f
6:24pm 8 13 mph 1021.2mb 31f
6:12pm 8 13 mph 1021.4mb 31f
6:06pm 8 13 mph 1021.3mb 31f
6:00pm 10 13 mph 1021.3mb 31f
5:54pm 10 14 mph 1021.3mb 31f
5:48pm 5 9 mph - -
5:42pm 6 14 mph 1021.2mb 32f
5:36pm 9 13 mph 1021.2mb 32f
5:30pm 6 14 mph 1021.2mb 32f
5:24pm 8 13 mph 1021.3mb 32f
5:12pm 9 11 mph 1021.3mb 32f
5:06pm 6 13 mph 1021.3mb 32f
5:00pm 11 13 mph 1021.3mb 31f
4:54pm 6 7 mph 1021.3mb 31f
4:48pm 6 8 mph 1021.4mb 31f
4:42pm 5 8 mph 1021.5mb 32f
4:36pm 5 8 mph 1021.5mb 31f
4:30pm 7 9 mph 1021.5mb 31f
4:24pm 6 7 mph 1021.6mb 31f
4:12pm 10 14 mph 1021.7mb 31f
4:06pm 7 8 mph 1021.8mb 31f
4:00pm 6 11 mph 1021.7mb 31f
3:54pm  -  mph 1021.8mb 31f
3:48pm 6 8 mph 1021.8mb 31f
3:42pm 6 10 mph 1021.8mb 31f
3:36pm 8 10 mph 1021.8mb 31f
3:30pm 7 9 mph 1021.9mb 31f
3:24pm 8 11 mph 1022mb 31f
3:12pm 8 9 mph 1021.9mb 30f
3:06pm 6 9 mph 1021.9mb 30f
3:00pm 5 8 mph 1021.9mb 30f
2:54pm 6 8 mph 1022mb 29f
2:48pm 5 8 mph 1022mb 30f
2:42pm 5 8 mph 1022.1mb 30f
2:36pm 5 10 mph 1022.1mb 29f
2:30pm 6 9 mph 1022.2mb 29f
2:24pm 6 7 mph 1022.3mb 29f
2:18pm 5 9 mph 1022.4mb 29f
2:12pm 5 7 mph 1022.5mb 29f
2:06pm 6 7 mph 1022.5mb 28f
2:00pm 5 7 mph 1022.5mb 28f
1:54pm 6 7 mph 1022.6mb 28f
1:48pm 6 9 mph 1022.7mb 27f
1:42pm 6 13 mph 1022.8mb 27f
1:36pm 7 9 mph 1022.9mb 27f
1:30pm 7 10 mph 1023mb 27f
1:24pm 9 11 mph 1023.2mb 27f
1:18pm 6 10 mph 1023.2mb 26f
1:12pm 7 13 mph 1023.2mb 26f
1:06pm 5 11 mph 1023.3mb 26f
1:00pm 10 13 mph 1023.4mb 26f
12:54pm 10 13 mph 1023.4mb 26f
12:48pm 8 11 mph 1023.5mb 26f
12:42pm 9 11 mph 1023.6mb 25f
12:36pm 7 11 mph 1023.7mb 25f
12:24pm 8 11 mph 1023.7mb 25f
12:18pm 9 13 mph 1023.8mb 24f
12:12pm 11 13 mph 1023.9mb 24f
12:06pm 8 11 mph 1024mb 24f
12:00pm 10 11 mph 1024mb 24f
11:54am 11 14 mph 1024.1mb 24f
11:48am 10 14 mph 1024.2mb 23f
11:42am 9 14 mph 1024.2mb 23f
11:36am 9 14 mph 1024.3mb 23f
11:24am 10 13 mph 1024.4mb 23f
11:18am 8 13 mph 1024.4mb 23f
11:12am 9 14 mph 1024.5mb 22f
11:06am 10 11 mph 1024.5mb 21f
11:00am 8 10 mph - -
10:54am 8 10 mph 1024.6mb 21f
10:48am 8 11 mph 1024.7mb 21f
10:42am 8 11 mph 1024.7mb 20f
10:36am 8 10 mph 1024.7mb 20f
10:30am 3 6 mph 1024.7mb 20f
10:24am 3 6 mph 1024.8mb 19f
10:18am 3
mph
1024.8mb 19f
10:12am 2 5 mph 1024.9mb 19f
10:06am 2 5 mph 1025mb 18f
9:54am 3
mph
1025.1mb 17f
9:48am 1 2 mph 1025.1mb 17f
9:42am 2
mph
1025.1mb 15f
9:36am 1 3 mph 1025.2mb 14f
9:24am 2 3 mph 1025.3mb 13f
9:12am 2 3 mph 1025.1mb 13f
9:06am 2 3 mph 1025mb 13f
9:00am 2
mph
1025mb 12f
8:54am 2 3 mph 1024.9mb 11f
8:48am 2 3 mph 1024.9mb 10f
8:42am 2
mph
1024.8mb 10f
8:36am 2 3 mph 1024.8mb 9f
8:30am 2 3 mph 1024.7mb 8f
8:24am 2
mph
1024.7mb 8f
8:18am 2 3 mph 1024.7mb 7f
8:12am 2
mph
1024.7mb 6f
8:06am 1 2 mph 1024.7mb 6f
8:00am  -  1 mph 1024.7mb 5f
7:54am  -  1 mph 1024.6mb 3f
7:48am 1 2 mph 1024.5mb 3f
7:42am 1 2 mph 1024.5mb 5f
7:36am 1 3 mph 1024.4mb 3f
7:30am 2 3 mph 1024.4mb 2f
7:24am 3
mph
1024.3mb 1f
7:18am 2 3 mph 1024.4mb 1f
7:12am 2
mph
1024.4mb -
7:06am 2 3 mph 1024.4mb -
7:00am 2 3 mph 1024.3mb -1f
6:54am 2
mph
1024.3mb -2f
6:48am  -  1 mph 1024.3mb -2f
6:42am 1 6 mph 1024.2mb -3f
6:36am 3
mph
1024.1mb -3f
6:30am 3 6 mph 1024mb -3f
6:24am 3 9 mph 1023.9mb -3f
6:18am 3 7 mph 1023.9mb -2f
6:12am 2
mph
1023.9mb -2f
6:06am 2 3 mph 1023.7mb -2f
6:00am 3 5 mph 1023.6mb -2f
5:54am 5 8 mph 1023.5mb -2f
5:48am 3 8 mph 1023.4mb -2f
5:42am 5 9 mph 1023.2mb -2f
5:36am 1 2 mph 1023.2mb -2f
5:30am  -  2 mph 1023.3mb -1f
5:24am 2 3 mph 1023.3mb -1f
5:12am 1 3 mph 1023.1mb -1f
5:06am 2 3 mph 1023mb -
5:00am 1 2 mph 1022.9mb 1f
4:54am  -  2 mph 1022.9mb 1f
4:42am 2 3 mph 1022.8mb 2f
4:36am 1 2 mph 1022.8mb 1f
4:30am 1 2 mph 1022.8mb 1f
4:24am 1 2 mph 1022.7mb -
4:12am  -  2 mph 1022.7mb 1f
4:06am  -  5 mph 1022.6mb 1f
4:00am  -  2 mph 1022.6mb 1f
3:54am 1 2 mph 1022.6mb 1f
3:42am 2 3 mph 1022.5mb 2f
3:36am 2
mph
1022.5mb 2f
3:30am 2 3 mph 1022.5mb 2f
3:24am 2
mph
1022.5mb 2f
3:18am 2 3 mph 1022.5mb 2f
3:12am 2 3 mph 1022.5mb 2f
3:06am 3
mph
1022.5mb 3f
3:00am 3 5 mph 1022.5mb 4f
2:54am 3 6 mph 1022.5mb 4f
2:48am 6 7 mph - -
2:42am 6 7 mph 1022.4mb 4f
2:36am 6 7 mph 1022.5mb 4f
2:30am 6 7 mph 1022.5mb 4f
2:24am 6 7 mph 1022.5mb 4f
2:18am 6 7 mph 1022.5mb 5f
2:12am 6 7 mph 1022.6mb 5f
2:06am 6 7 mph 1022.6mb 5f
2:00am 6 7 mph 1022.5mb 5f
1:48am 6 7 mph 1022.5mb 5f
1:12am 6
mph
1022.3mb 5f
1:00am 6
mph
1022.3mb 5f
12:42am 6 7 mph 1022.2mb 6f
12:36am 7 8 mph 1022.2mb 6f
12:30am 8
mph
1022.2mb -
12:24am 7 8 mph 1022.2mb 6f
12:18am 7 8 mph 1022.2mb 6f
12:12am 8
mph
1022.2mb 6f
12:06am 8 9 mph 1022.2mb 6f
12:00am 7 8 mph 1022.2mb 6f
Fri 03/27 11:54pm 7 8 mph 1022.2mb 6f
11:48pm 6 7 mph 1022.1mb 6f
11:42pm 6 8 mph 1022.1mb 6f
11:36pm 7 9 mph 1022.1mb 7f
11:30pm 7 9 mph 1022.1mb 8f
11:24pm 6 8 mph 1022mb 7f
11:18pm 6 7 mph 1022.1mb 7f
11:12pm 5 7 mph - -
11:06pm 3 5 mph 1022.1mb 7f
11:00pm 6 7 mph 1022mb 6f
10:54pm 7 8 mph 1021.9mb 7f
10:48pm 7 8 mph 1021.8mb 7f
10:42pm 8 9 mph 1021.8mb 7f
10:36pm 7 9 mph 1021.8mb 7f
10:30pm 8 9 mph 1021.8mb 7f
10:24pm 8 9 mph 1021.8mb 8f
10:18pm 8
mph
1021.7mb 8f
10:06pm 6 9 mph 1021.7mb 8f
10:00pm 6 9 mph 1021.7mb 8f
9:54pm 7 9 mph 1021.6mb 9f
9:48pm 6 9 mph 1021.6mb 9f
9:42pm 5 7 mph 1021.7mb 9f
9:36pm 5 7 mph 1021.7mb 9f
9:30pm 7 10 mph 1021.8mb 9f
9:24pm 8 11 mph 1021.7mb 9f
9:18pm 8 10 mph 1021.7mb 9f
9:12pm 8 11 mph 1021.7mb 9f
9:06pm 10 14 mph 1021.6mb 9f
9:00pm 10 13 mph 1021.5mb 9f
8:42pm 9 13 mph 1021.5mb 10f
8:36pm 7 10 mph 1021.4mb 10f
8:30pm 7 9 mph 1021.4mb 10f
8:24pm 7 11 mph 1021.3mb 10f
8:18pm 8 13 mph 1021.3mb 10f
8:12pm 10 14 mph 1021.3mb 10f
8:06pm 8 14 mph 1021.3mb 10f
8:00pm 10 14 mph 1021.3mb 10f
7:54pm 7 14 mph 1021.2mb 10f
7:48pm 7 14 mph 1021.2mb 11f
7:42pm 9 15 mph 1021.2mb 11f
7:36pm 10 15 mph 1021.1mb 11f
7:30pm 9 14 mph 1021mb 11f
7:12pm 9 14 mph 1020.8mb 12f
7:06pm 9 14 mph 1020.8mb 12f
7:00pm 11 14 mph 1020.9mb 12f
6:54pm 9 13 mph 1020.8mb 12f
6:48pm 10 14 mph 1020.7mb 12f
6:42pm 13 20 mph 1020.6mb 12f
6:36pm 10 17 mph 1020.5mb 13f
6:30pm 11 14 mph 1020.3mb 13f
6:24pm 9 17 mph 1020.3mb 13f
6:18pm 9 17 mph 1020.2mb 13f
6:12pm 11 16 mph 1020.3mb 13f
6:06pm 11 17 mph 1020.3mb 13f
6:00pm 13 18 mph - -
5:36pm 14 18 mph 1020mb 14f
5:30pm 13 17 mph 1020mb 14f
5:24pm 16 21 mph 1020mb 13f
5:18pm 16 20 mph 1019.9mb 13f
5:12pm 11 22 mph 1019.9mb 14f
5:06pm 17 22 mph 1019.9mb 13f
4:54pm 16 28 mph 1020mb 13f
4:48pm 16 24 mph 1020mb 14f
4:36pm 18 28 mph 1019.9mb 13f
4:30pm 17 22 mph 1019.9mb 15f
4:24pm 17 23 mph 1019.9mb 14f
4:18pm 17 24 mph 1019.8mb 14f
4:12pm 16 22 mph 1019.8mb 14f
4:06pm 18 24 mph 1019.8mb 14f
4:00pm 18 24 mph 1019.8mb 13f
3:54pm 17 24 mph 1019.7mb 14f
3:48pm 20 23 mph 1019.6mb 13f
3:42pm 17 24 mph - -
3:36pm 18 25 mph 1019.7mb 13f
3:30pm 18 26 mph 1019.7mb 14f
3:24pm 20 24 mph 1019.7mb 13f
3:18pm 17 23 mph 1019.7mb 14f
3:12pm 18 22 mph 1019.7mb 14f
3:06pm 18 24 mph 1019.7mb 13f
2:54pm 18 25 mph 1019.7mb 14f
2:48pm 22 26 mph 1019.8mb 13f
2:42pm 20 25 mph 1019.8mb 14f
2:36pm 17 22 mph 1019.9mb 13f
2:30pm 17 23 mph 1019.9mb 13f
2:24pm 21 23 mph 1020mb 13f
2:18pm 18 24 mph 1020mb 13f
2:06pm 16 22 mph 1020mb 13f
2:00pm 15 23 mph 1020mb 13f
1:54pm 20 23 mph 1020mb 12f
1:48pm 17 24 mph 1020mb 13f
1:42pm 18 23 mph 1020mb 12f
1:36pm 18 25 mph 1020.1mb 12f
1:30pm 20 25 mph 1020.2mb 12f
1:24pm 16 23 mph 1020.2mb 12f
1:18pm 18 22 mph 1020.3mb 11f
1:12pm 17 24 mph 1020.2mb 12f
1:06pm 20 22 mph 1020.1mb 12f
1:00pm 18 22 mph 1020.2mb -
12:48pm 15 21 mph 1020.2mb 12f
12:42pm 15 20 mph 1020.2mb 12f
12:36pm 15 21 mph 1020.2mb 12f
12:30pm 17 20 mph 1020.1mb 12f
12:24pm 14 21 mph 1020.1mb 12f
12:18pm 13 18 mph 1020.1mb 12f
12:12pm 11 16 mph 1020.1mb 12f
12:06pm 13 16 mph 1020.1mb 12f
12:00pm 11 15 mph 1020.1mb 12f
11:54am 11 18 mph 1020.2mb 12f
11:48am 10 14 mph 1020.2mb 12f
11:42am 10 16 mph 1020.3mb 11f
11:36am 10 15 mph 1020.4mb 11f
11:24am 13 17 mph 1020.4mb 11f
11:18am 9 16 mph 1020.4mb 10f
11:12am 10 15 mph 1020.4mb 10f
11:06am 10 15 mph 1020.4mb 10f
11:00am 8 14 mph 1020.4mb 10f
10:54am 9 15 mph 1020.5mb 9f
10:48am 8 11 mph 1020.6mb 9f
10:42am 8 11 mph 1020.7mb 8f
10:36am 11 14 mph 1020.7mb 8f
10:30am 9 14 mph 1020.8mb 7f
10:24am 8 13 mph 1020.8mb 8f
10:18am 8 13 mph 1020.8mb 7f
10:12am 7 14 mph 1020.9mb 7f
10:06am 10 13 mph 1020.9mb 7f
9:54am 8 13 mph 1020.9mb 6f
9:48am 9 14 mph 1021mb 6f
9:42am 8 14 mph 1020.9mb 6f
9:36am 9 14 mph 1020.9mb 6f
9:30am 9 13 mph - -
9:24am 9 16 mph 1020.9mb 6f
9:12am 11 16 mph 1020.9mb 5f
9:06am 11 17 mph 1020.9mb 5f
9:00am 8 13 mph 1020.9mb 5f
8:54am 11 17 mph 1020.9mb 4f
8:48am 11 15 mph 1020.8mb -
8:42am 11 16 mph 1020.8mb 4f
8:36am 11 17 mph 1020.7mb 4f
8:30am 11 20 mph 1020.7mb 4f
8:24am 11 18 mph 1020.6mb 4f
8:18am 14 21 mph 1020.7mb 4f
8:12am 13 21 mph 1020.6mb 4f
8:06am 11 18 mph 1020.6mb 4f
8:00am 14 21 mph 1020.5mb 4f
7:54am 9 15 mph 1020.4mb 4f
7:48am 10 15 mph 1020.3mb 4f
7:42am 8 13 mph 1020.3mb 4f
7:36am 6 9 mph 1020.2mb 4f
7:30am 6 9 mph 1020.1mb -
7:24am 6 10 mph 1020.1mb 4f
7:18am 6 10 mph 1019.9mb 4f
7:12am 8 10 mph 1019.8mb 3f
7:06am 7 10 mph 1019.8mb 3f
7:00am 8 11 mph 1019.7mb 3f
6:54am 7 10 mph 1019.6mb 3f
6:48am 6 8 mph 1019.5mb 3f
6:42am 6 8 mph 1019.4mb 4f
6:36am 7 9 mph 1019.3mb 3f
6:30am 8 9 mph 1019.3mb 3f
6:24am 8 9 mph 1019.2mb 4f
6:18am 6 8 mph 1019mb -
6:12am 7 11 mph 1018.9mb 5f
6:06am 7 10 mph 1018.9mb 5f
6:00am 8 11 mph 1018.9mb 5f
5:54am 8 10 mph 1018.9mb 5f
5:42am 8 10 mph 1018.6mb 5f
5:36am 8 11 mph 1018.5mb 5f
5:30am 7 10 mph 1018.5mb 5f
5:24am 8 10 mph 1018.4mb 6f
5:18am 6 7 mph 1018.3mb 6f
5:12am 6 8 mph 1018.2mb 6f
5:06am 7 11 mph 1018.2mb 7f
5:00am 8 15 mph 1018.1mb 7f
4:54am 9 14 mph 1018mb 7f
4:48am 10 14 mph - 7f
4:42am 7 8 mph - 7f
4:36am 7 8 mph - 8f
4:30am 6 11 mph 1017.7mb 8f
4:24am 10 14 mph 1017.7mb 9f
4:18am 8 13 mph - -
4:12am 7 13 mph 1017.4mb 9f
4:06am 11 14 mph 1017.4mb 9f
4:00am 11 15 mph 1017.4mb -
3:54am 10 14 mph 1017.4mb -
3:48am 8 11 mph 1017.3mb -
3:42am 9 13 mph 1017.3mb 9f
3:36am 8 10 mph 1017.3mb 9f
3:30am 6 11 mph 1017.2mb 10f
3:24am 6 11 mph 1017.2mb 10f
3:18am 10 13 mph 1017.2mb 10f
3:12am 7 13 mph 1017.2mb 10f
3:06am 10 14 mph 1017.2mb 11f
3:00am 11 14 mph 1017.2mb 11f
2:54am 11 15 mph 1017.1mb 11f
2:48am 11 14 mph 1017.1mb 11f
2:42am 11 16 mph 1017.1mb 11f
2:36am 13 16 mph 1017mb 11f
2:30am 10 15 mph 1017mb 11f
2:24am 11 14 mph 1016.9mb 11f
2:18am 11 17 mph 1016.9mb -
2:12am 11 17 mph 1016.9mb 12f
2:06am 11 17 mph 1016.9mb 12f
1:54am 10 17 mph 1016.7mb 13f
1:48am 13 17 mph 1016.6mb -
1:30am 9 14 mph 1016.6mb 13f
1:18am 9 16 mph 1016.6mb 14f
1:06am 10 20 mph 1016.4mb 14f
12:54am 13 17 mph 1016.3mb 15f
12:42am 10 17 mph 1016.2mb 15f
12:36am 7 17 mph 1016mb 15f
12:30am 11 15 mph 1016mb 15f
12:24am 8 14 mph 1015.9mb 15f
12:12am 10 16 mph 1015.9mb 16f
12:06am 10 16 mph 1015.8mb 16f
12:00am 9 18 mph 1015.8mb 16f
Thu 03/26 11:54pm 10 18 mph 1015.8mb 16f
11:48pm 10 18 mph 1015.7mb 17f
11:42pm 7 10 mph 1015.6mb 17f
11:36pm 8 15 mph 1015.6mb 17f
11:30pm 9 14 mph 1015.5mb 17f
11:24pm 10 17 mph 1015.5mb 17f
11:18pm 7 17 mph 1015.4mb 17f
11:12pm 11 17 mph 1015.4mb 17f
11:06pm 13 17 mph 1015.3mb 18f
11:00pm 10 18 mph 1015.2mb 18f
10:54pm 11 18 mph 1015.1mb 18f
10:48pm 10 17 mph - -
10:42pm 10 16 mph 1015mb 18f
10:36pm 10 15 mph 1015mb 19f
10:30pm 11 17 mph 1015mb 19f
10:24pm 13 16 mph 1014.9mb 19f
10:12pm 14 20 mph 1014.7mb 19f
10:06pm 15 22 mph 1014.6mb 19f
10:00pm 14 24 mph 1014.6mb 19f
9:54pm 18 22 mph 1014.6mb 20f
9:48pm 10 22 mph 1014.5mb -
9:42pm 13 18 mph 1014.5mb 20f
9:36pm 11 16 mph 1014.3mb 20f
9:30pm 13 18 mph 1014.3mb 20f
9:24pm 10 17 mph 1014.2mb 20f
9:18pm 11 17 mph 1014.1mb 21f
9:12pm 13 18 mph 1014mb 21f
9:06pm 13 23 mph 1013.9mb 21f
9:00pm 14 20 mph 1013.7mb 21f
8:54pm 13 17 mph 1013.6mb 22f
8:42pm 13 21 mph 1013.4mb 22f
8:36pm 14 21 mph 1013.2mb 22f
8:30pm 16 22 mph 1013.1mb 22f
8:24pm 11 16 mph 1013mb 22f
8:18pm 11 17 mph 1012.8mb -
8:12pm 14 20 mph 1012.7mb 22f
8:06pm 14 18 mph 1012.6mb 22f
8:00pm 16 22 mph 1012.5mb 22f
7:54pm 17 24 mph 1012.4mb 21f
7:48pm 21 24 mph - -
7:42pm 18 26 mph 1012.3mb 21f
7:36pm 20 25 mph 1012.2mb 21f
7:30pm 20 28 mph - -
7:24pm 22 29 mph 1012.1mb 21f
7:18pm 22 29 mph 1012mb 21f
7:12pm 21 24 mph 1011.9mb 21f
7:06pm 20 25 mph 1011.9mb 21f
7:00pm 20 25 mph 1011.9mb 21f
6:54pm 22 29 mph 1011.8mb 21f
6:48pm 20 25 mph 1011.9mb 21f
6:42pm 22 31 mph 1011.8mb 21f
6:36pm 22 32 mph 1011.8mb 21f
6:30pm 23 28 mph - -
6:24pm 22 26 mph 1011.6mb 21f
6:18pm 20 29 mph 1011.5mb 21f
6:12pm 22 31 mph 1011.4mb 21f
6:06pm 22 29 mph 1011.2mb 21f
6:00pm 25 36 mph 1011.1mb 21f
5:54pm 23 29 mph 1011mb 21f
5:48pm 24 32 mph 1010.8mb 21f
5:42pm 24 34 mph 1010.7mb 21f
5:36pm 26 33 mph 1010.6mb 22f
5:30pm 20 31 mph 1010.4mb 22f
5:24pm 28 37 mph 1010.2mb 22f
5:18pm 28 39 mph 1010.2mb 22f
5:12pm 26 36 mph 1010mb 22f
5:06pm 28 38 mph 1010mb 22f
5:00pm 29 37 mph - -
4:54pm 25 37 mph 1009.8mb 22f
4:48pm 24 36 mph 1009.6mb 22f
4:42pm 30 37 mph 1009.6mb 22f
4:36pm 26 34 mph 1009.6mb 22f
4:30pm 22 29 mph 1009.7mb 22f
4:24pm 22 32 mph 1009.7mb 22f
4:18pm 23 32 mph 1009.7mb 22f
4:12pm 25 36 mph 1009.6mb 22f
4:06pm 25 34 mph 1009.6mb 22f
4:00pm 22 33 mph 1009.5mb 23f
3:54pm 26 34 mph 1009.4mb 23f
3:48pm 24 31 mph 1009.4mb 23f
3:42pm 21 32 mph 1009.3mb 23f
3:36pm 22 36 mph 1009.2mb 23f
3:30pm 28 38 mph 1009.2mb 24f
3:24pm 23 34 mph 1009mb 24f
3:18pm 24 36 mph - -
3:12pm 29 38 mph 1008.8mb 24f
3:06pm 28 38 mph 1008.7mb 24f
3:00pm 26 37 mph 1008.7mb 25f
2:54pm 28 34 mph 1008.6mb 25f
2:48pm 29 34 mph 1008.4mb -
2:42pm 25 32 mph 1008.3mb 27f
2:36pm 29 39 mph 1008.3mb 26f
2:30pm 26 32 mph 1008.1mb 27f
2:24pm 29 36 mph 1008.1mb 27f
2:18pm 24 32 mph - -
2:12pm 21 28 mph 1008.1mb 30f
2:06pm 25 31 mph 1008.1mb 29f
2:00pm 25 31 mph 1008.1mb 29f
1:54pm 21 28 mph 1008mb 30f
1:42pm 20 26 mph 1008mb 31f
1:36pm 21 25 mph 1008mb 31f
1:30pm 18 24 mph 1007.9mb 31f
1:24pm 17 23 mph 1007.9mb 31f
1:18pm 21 25 mph 1007.9mb 31f
1:12pm 18 23 mph 1007.9mb 31f
1:06pm 18 23 mph 1007.9mb 31f
1:00pm 17 22 mph 1007.9mb 31f
12:54pm 18 23 mph 1007.8mb 31f
12:48pm 17 22 mph 1007.7mb -
12:42pm 17 23 mph 1007.7mb 31f
12:36pm 14 20 mph 1007.6mb 32f
12:30pm 15 21 mph 1007.6mb 32f
12:24pm 17 22 mph 1007.6mb 32f
12:18pm 14 18 mph 1007.6mb -
12:12pm 16 20 mph 1007.6mb 32f
12:06pm 10 17 mph 1007.5mb 32f
12:00pm 14 16 mph 1007.5mb 32f
11:54am 14 17 mph 1007.4mb 32f
11:48am 14 17 mph 1007.4mb 32f
11:42am 14 16 mph 1007.4mb 32f
11:36am 8 11 mph 1007.4mb 33f
11:30am 10 15 mph 1007.4mb 33f
11:24am 11 14 mph 1007.3mb 33f
11:18am 9 13 mph 1007.3mb -
11:12am 8 11 mph 1007.3mb 33f
11:06am 6 9 mph 1007.3mb 33f
11:00am 3 8 mph 1007.4mb 34f
10:54am 7 9 mph 1007.4mb 33f
10:48am 3 6 mph 1007.5mb 33f
10:42am 3 6 mph 1007.5mb 33f
10:36am 6 8 mph 1007.6mb 33f
10:30am 6 7 mph 1007.6mb 33f
10:24am 5 6 mph 1007.7mb 33f
10:12am 5 7 mph 1007.7mb 33f
10:06am 6 8 mph 1007.7mb 33f
10:00am 5 8 mph 1007.8mb 33f
9:54am 3 6 mph 1007.7mb 33f
9:48am 5 6 mph 1007.7mb -
9:42am 5 7 mph 1007.7mb 33f
9:36am 6 7 mph 1007.7mb 33f
9:30am 5 6 mph 1007.7mb 33f
9:24am 5 8 mph 1007.7mb 33f
9:18am 5 10 mph 1007.6mb 33f
9:12am 7 11 mph 1007.6mb 33f
9:06am 9 11 mph 1007.5mb 33f
9:00am 3 5 mph 1007.4mb 33f
8:54am 3
mph
1007.4mb 33f
8:48am 3 6 mph 1007.4mb -
8:42am 5 7 mph 1007.4mb 33f
8:36am 5 7 mph 1007.3mb 33f
8:30am 5 6 mph 1007.3mb 33f
8:24am 3 5 mph 1007.2mb 33f
8:18am 3
mph
1007.2mb 33f
8:12am 3 5 mph 1007.1mb 34f
8:06am 5 7 mph 1007.1mb 33f
8:00am 3 6 mph 1007.1mb 34f
7:54am 5 7 mph 1007.1mb 34f
7:48am 6 8 mph 1007.1mb -
7:42am 7 9 mph 1007mb 34f
7:36am 3 6 mph 1007mb 34f
7:30am 2 3 mph 1007mb 34f
7:24am 3 5 mph 1006.9mb 34f
7:18am 3 5 mph 1007mb 34f
7:12am 3 5 mph 1007mb 34f
7:06am 3 5 mph 1006.9mb 34f
6:54am 5 8 mph 1007mb 34f
6:42am 3 7 mph 1007mb 34f
6:36am 5 6 mph 1007mb 34f
6:30am 2 7 mph 1006.9mb 34f
6:24am 5 7 mph 1006.9mb 34f
6:18am 5 7 mph 1006.9mb 34f
6:12am 6 8 mph 1006.8mb 34f
6:06am 8 10 mph 1006.7mb 34f
6:00am 8 10 mph 1006.7mb 34f
5:54am 8 13 mph 1006.6mb 34f
5:48am 9 14 mph 1006.7mb 34f
5:42am 9 11 mph 1006.8mb 34f
5:36am 7 10 mph 1006.8mb 34f
5:30am 7 13 mph 1006.8mb 34f
5:24am 8 9 mph 1006.9mb 34f
5:18am 9 11 mph 1006.8mb 34f
5:12am 6 10 mph 1006.8mb 34f
5:06am 8 10 mph 1006.8mb 34f
5:00am  -  mph 1006.8mb 34f
4:54am  -  mph 1006.9mb 34f
4:48am 6 7 mph - -
4:42am 5 6 mph 1007mb -
4:36am 6 8 mph 1007mb -
4:30am 6 9 mph 1007.1mb 34f
4:24am 7 10 mph 1007.1mb 34f
4:18am 6 11 mph 1007.2mb 34f
4:12am 7 11 mph 1007.3mb 35f
4:06am 8 13 mph 1007.3mb 35f
4:00am 8 13 mph 1007.3mb 35f
3:54am 9 15 mph 1007.3mb 35f
3:48am 11 16 mph 1007.2mb 35f
3:42am 11 16 mph 1007.2mb 35f
3:36am 10 17 mph 1007.3mb 35f
3:30am 10 17 mph 1007.2mb -
3:24am 11 16 mph 1007.4mb 35f
3:18am 10 16 mph 1007.3mb 35f
3:12am 10 15 mph 1007.4mb 35f
3:06am 13 20 mph 1007.5mb 35f
3:00am 13 17 mph 1007.3mb 35f
2:54am 10 14 mph 1007.1mb 35f
2:48am 9 14 mph 1007mb 35f
2:42am 9 14 mph 1007.1mb 35f
2:36am 14 21 mph 1006.8mb 35f
2:30am 11 18 mph 1006.7mb 35f
2:24am 8 15 mph 1007mb 34f
2:18am 14 16 mph 1007mb -
2:12am 10 14 mph 1007mb 34f
2:06am 10 14 mph 1007mb 34f
2:00am 9 14 mph 1007.1mb 35f
1:54am 9 15 mph 1007.2mb 35f
1:24am 10 14 mph 1006.8mb -
1:18am 9 15 mph 1006.8mb 35f
1:00am 6 10 mph 1006.8mb 35f
12:54am 7 10 mph 1006.7mb 35f
12:48am 8 14 mph 1006.7mb 35f
12:42am 11 18 mph 1006.7mb 35f
12:36am 9 16 mph 1006.6mb 35f
12:30am 11 18 mph 1006.5mb 35f
12:24am 9 14 mph 1006.5mb 35f
12:18am 9 14 mph 1006.4mb 35f
12:12am 11 15 mph 1006.3mb 36f
12:06am 10 14 mph 1006.3mb 36f
12:00am 10 15 mph 1006.2mb 36f
Wed 03/25 11:54pm 9 15 mph 1006.2mb 36f
11:48pm 11 17 mph 1006.2mb 36f
11:42pm 11 17 mph 1006.1mb 36f
11:36pm 9 16 mph 1006.2mb 36f
11:30pm 9 15 mph 1006.2mb 36f
11:24pm 11 16 mph 1006.1mb 36f
11:18pm 11 16 mph 1006mb 36f
11:12pm 13 18 mph 1005.8mb 36f
11:06pm 9 15 mph 1005.7mb 35f
11:00pm 9 14 mph 1005.6mb 35f
10:54pm 10 18 mph 1005.6mb 36f
10:48pm 8 13 mph 1005.5mb -
10:42pm 7 14 mph 1005.5mb 35f
10:36pm 9 14 mph 1005.5mb 35f
10:30pm 9 16 mph 1005.5mb 35f
10:24pm 8 13 mph 1005.5mb 35f
10:18pm 9 17 mph - -
10:12pm 9 14 mph 1005.6mb 35f
10:06pm 10 16 mph 1005.6mb 35f
10:00pm 10 20 mph 1005.6mb 35f
9:54pm 11 16 mph 1005.7mb 35f
9:42pm 9 17 mph 1005.6mb 35f
9:36pm 9 15 mph 1005.7mb 35f
9:30pm 11 22 mph 1005.6mb 35f
9:24pm 10 17 mph 1005.5mb 35f
9:18pm 11 16 mph 1005.5mb 35f
9:12pm 11 15 mph 1005.5mb 35f
9:06pm 14 18 mph 1005.5mb 35f
8:54pm 10 20 mph 1005.3mb 35f
8:48pm 11 18 mph - -
8:42pm 13 21 mph 1005.3mb 35f
8:36pm 10 20 mph 1005.3mb 35f
8:30pm 10 20 mph 1005.2mb 35f
8:24pm 10 18 mph 1005.2mb 35f
8:18pm 13 20 mph 1005.2mb -
8:12pm 8 18 mph 1005.1mb 35f
8:06pm 11 17 mph 1005.1mb 35f
8:00pm 14 21 mph 1005mb 35f
7:54pm 9 15 mph 1004.9mb 35f
7:42pm 10 16 mph 1004.9mb 35f
7:36pm 11 21 mph 1004.9mb 35f
7:30pm 11 18 mph 1004.8mb 35f
7:24pm 9 18 mph 1004.6mb 35f
7:18pm 10 17 mph 1004.5mb -
7:12pm 8 16 mph 1004.5mb 35f
7:06pm 10 20 mph 1004.4mb 35f
7:00pm 9 18 mph 1004.4mb 34f
6:54pm 13 16 mph 1004.4mb 34f
6:48pm 11 16 mph 1004.4mb -
6:42pm 13 21 mph 1004.3mb 34f
6:36pm 9 18 mph 1004.2mb 34f
6:30pm 14 25 mph 1004.2mb 34f
6:24pm 10 22 mph 1004.2mb 34f
6:12pm 11 18 mph 1004.2mb 34f
6:06pm 14 18 mph 1004.2mb 34f
6:00pm 9 21 mph 1004.2mb 34f
5:54pm 13 20 mph 1004.1mb 34f
5:48pm 13 20 mph 1004.1mb 34f
5:42pm 10 16 mph 1004.2mb 34f
5:36pm 10 15 mph 1004.1mb 33f
5:30pm 8 14 mph 1004mb 33f
5:24pm 9 15 mph 1004mb 33f
5:12pm 9 18 mph 1003.9mb 33f
5:06pm 9 18 mph 1004mb 33f
5:00pm 11 20 mph 1004mb 33f
4:54pm 11 24 mph 1004mb 33f
4:48pm 13 20 mph - -
4:42pm 14 26 mph 1003.9mb 33f
4:36pm 11 21 mph 1003.8mb 33f
4:30pm 17 23 mph 1003.8mb 33f
4:24pm 13 21 mph 1003.7mb 33f
4:18pm 17 26 mph 1003.6mb 33f
4:12pm 13 20 mph 1003.6mb 33f
4:06pm 14 23 mph 1003.6mb 34f
4:00pm 11 24 mph 1003.5mb 34f
3:54pm 14 24 mph 1003.4mb 34f
3:42pm 9 16 mph 1003.3mb 34f
3:36pm 11 17 mph 1003.2mb 34f
3:30pm 11 21 mph 1003.2mb 34f
3:24pm 10 22 mph 1003.2mb 34f
3:18pm 13 21 mph - -
3:12pm 9 15 mph 1003.1mb 34f
3:06pm 8 17 mph 1003.1mb 34f
3:00pm 7 15 mph 1003.1mb 34f
2:54pm 11 17 mph 1002.8mb 34f
2:48pm 9 17 mph - -
2:42pm 6 14 mph 1002.9mb 34f
2:36pm 6 17 mph 1002.9mb 34f
2:30pm 7 13 mph 1002.8mb 34f
2:24pm 5 11 mph 1002.8mb 34f
2:18pm 6 10 mph 1002.8mb -
2:12pm 7 10 mph 1002.8mb 34f
2:06pm 6 9 mph 1002.8mb 33f
2:00pm 5 9 mph 1002.7mb 33f
1:54pm 5 9 mph 1002.9mb 33f
1:42pm 7 11 mph 1003mb 32f
1:36pm 7 11 mph 1003mb 31f
1:30pm 7 13 mph 1003mb 31f
1:24pm 9 11 mph 1003.1mb 30f
1:18pm 9 14 mph 1003.2mb 30f
1:12pm 9 11 mph 1003.3mb 30f
1:06pm 10 15 mph 1003.3mb 30f
12:54pm 11 18 mph 1003.5mb 29f
12:48pm 13 20 mph 1003.7mb 29f
12:42pm 13 18 mph 1003.6mb 29f
12:36pm 8 11 mph 1003.7mb 29f
12:30pm 9 13 mph 1003.9mb 28f
12:24pm 6 13 mph 1004mb 28f
12:18pm 9 15 mph 1004mb 28f
12:12pm 9 15 mph 1004mb 27f
12:06pm 11 17 mph 1004.3mb 27f
12:00pm 9 13 mph - -
11:54am 9 14 mph 1004.5mb 27f
11:48am 13 17 mph 1004.6mb 27f
11:42am 13 18 mph 1004.6mb 26f
11:36am 10 16 mph 1004.9mb 26f
11:30am 9 14 mph 1004.9mb 26f
11:24am 10 16 mph 1005.1mb 26f
11:18am 9 13 mph 1005.2mb 25f
11:12am 8 13 mph 1005.3mb 25f
11:06am 7 14 mph 1005.5mb 25f
11:00am 8 13 mph - -
10:54am 10 15 mph 1005.8mb 25f
10:48am 8 16 mph 1006mb 25f
10:42am 11 16 mph 1006mb 25f
10:36am 9 18 mph 1005.9mb 25f
10:30am 8 15 mph 1005.9mb 25f
10:24am 9 16 mph 1006mb 25f
10:18am 10 18 mph 1006mb 25f
10:12am 9 20 mph 1006.2mb 25f
10:06am 10 18 mph 1006.3mb 25f
9:54am 8 17 mph 1007.1mb 25f
9:48am 13 20 mph 1007.4mb 25f
9:42am 13 16 mph 1007.8mb 25f
9:36am 9 16 mph 1007.7mb 25f
9:30am 8 17 mph 1008.1mb 26f
9:24am 13 17 mph 1008.5mb 26f
9:18am 13 20 mph - -
9:12am 13 20 mph 1008.8mb 26f
9:06am 11 20 mph 1008.8mb 26f
9:00am 11 18 mph 1008.9mb 26f
8:54am 10 15 mph 1009.1mb 26f
8:48am 14 20 mph 1009.2mb -
8:42am 9 16 mph 1009.1mb 25f
8:36am 8 11 mph 1009.6mb 25f
8:30am 9 16 mph 1009.8mb 25f
8:24am 9 17 mph 1009.7mb 24f
8:18am 10 17 mph - -
8:12am 10 15 mph 1010mb 24f
8:06am 13 18 mph 1010.1mb 24f
8:00am 9 17 mph 1010.2mb 24f
7:54am 10 18 mph 1010.6mb 23f
7:48am 10 14 mph 1010.8mb 23f
7:42am 7 15 mph 1010.9mb 23f
7:36am 8 17 mph 1011.2mb 23f
7:30am 10 16 mph 1011.3mb 22f
7:24am 10 15 mph 1011.5mb 22f
7:18am 8 14 mph 1011.8mb -
7:12am 7 15 mph 1012.1mb 22f
7:06am 8 14 mph 1012.3mb 22f
7:00am 6 13 mph 1012.5mb 22f
6:54am 7 14 mph 1012.6mb 22f
6:48am 9 14 mph 1012.9mb 22f
6:42am 10 16 mph 1013.1mb 21f
6:36am 8 14 mph 1013.1mb 21f
6:30am 10 15 mph 1013.3mb 21f
6:24am 7 11 mph 1013.5mb 21f
6:18am 8 11 mph 1013.7mb 21f
6:12am 7 10 mph 1013.9mb 21f
6:06am 6 11 mph 1014.4mb 21f
6:00am 6 11 mph 1014.6mb 21f
5:54am 6 11 mph 1014.7mb 20f
5:48am 7 10 mph 1014.6mb 20f
5:42am 6 11 mph 1014.6mb 20f
5:36am 7 10 mph 1014.8mb 20f
5:30am 5 10 mph 1014.9mb 20f
5:24am 6 9 mph 1015mb 20f
5:18am 6 10 mph 1015mb -
5:12am 8 13 mph 1015.1mb 20f
5:06am 6 11 mph 1015.3mb 20f
5:00am 6 10 mph 1015.4mb 20f
4:54am 7 9 mph 1015.4mb 20f
4:48am  -  mph 1015.4mb -
4:42am 7 11 mph 1015.5mb -
4:36am 7 10 mph 1015.7mb -
4:30am 7 11 mph 1015.8mb 19f
4:24am 7 11 mph 1015.7mb 19f
4:18am 6 10 mph 1016.1mb 19f
4:12am 6 10 mph 1016.2mb 19f
4:06am 6 9 mph 1016.2mb 19f
4:00am 7 10 mph 1016.4mb 19f
3:54am 6 10 mph 1016.4mb 19f
3:48am 7 10 mph 1016.4mb -
3:42am 6 10 mph 1016.5mb 19f
3:36am 6 10 mph 1016.5mb 19f
3:30am 6 9 mph 1016.8mb 19f
3:24am 3 8 mph 1017mb 19f
3:18am 5 7 mph 1017mb 19f
3:12am 6 7 mph 1017.2mb 19f
3:06am 5 8 mph 1017.6mb 19f
3:00am 6 8 mph 1017.8mb 19f
2:54am 5 6 mph 1018mb 19f
2:48am 5 8 mph 1017.9mb 19f
2:42am 3 6 mph 1018mb 19f
2:36am 3 7 mph 1018.3mb 19f
2:30am 5 7 mph 1018.7mb 19f
2:24am 3 6 mph 1018.8mb 19f
2:18am 5 8 mph 1018.8mb 19f
2:12am 3 6 mph 1018.8mb 19f
2:06am 3 6 mph 1018.7mb 19f
2:00am 3 8 mph 1018.8mb 19f
1:54am 5 7 mph 1019.1mb 19f
1:48am 3 6 mph 1019.3mb -
1:42am 2 5 mph 1019.5mb 19f